Location: Albany
(35.0170°S, 117.8920°E)
Time: 10:20:25
(UTC+08:00)

S-56A Canister/Altair - Pass Details

Date: 22 January 2021
Orbit: 631 x 2501 km, 38.9° (Epoch: 02 March)

Event Time Altitude Azimuth Distance (km) Brightness Sun altitude
Rises 10:43:16 0° 5° (N) 5,194 12.0 63.7°
Reaches altitude 10° 10:48:49 10° 26° (NNE) 4,565 12.0 64.7°
Maximum altitude 10:55:01 15° 55° (NE) 4,476 12.1 65.8°
Drops below altitude 10° 11:01:47 10° 84° (E) 5,098 12.2 66.9°
Sets 11:08:34 0° 103° (ESE) 6,193 12.3 68.0°
